This demonstration page uses our WeatherBlox Daily Observations layout. Learn more.

Left ArrowRight Arrow

39.51506, -84.39828

Hourly Observations for April 16, 2015

Temp ( °F °C ) Dew Point ( °F °C ) Humidity (%) Winds ( mph kmh ) Pressure ( in mb ) Visibility ( mi km ) Precip ( " mm )
12:15 am 00:15 Partly Cloudy 62 16.6 28 -2.2 28 28 ESE 8 13 30.15 1021 10 16.0934 N/A
12:35 am 00:35 Clear 61 16 28 -2.2 29 29 E 8 13 30.18 1022 10 16.0934 N/A
12:55 am 00:55 Clear 61 16 28 -2.2 29 29 E 8 13 30.18 1022 10 16.0934 N/A
1:15 am 01:15 Clear 60 15.8 29 -1.4 31 31 E 6 9 30.18 1022 10 16.0934 N/A
1:35 am 01:35 Clear 60 15.4 32 -0.1 35 35 E 6 9 30.18 1022 10 16.0934 N/A
1:55 am 01:55 Clear with Rain 60 15.3 36 2.3 42 42 E 7 11 30.18 1022 10 16.0934 N/A
2:15 am 02:15 Mostly Cloudy 60 15.3 38 3.1 44 44 ESE 8 13 30.15 1021 10 16.0934 N/A
2:35 am 02:35 Mostly Cloudy 60 15.3 39 3.8 46 46 E 6 9 30.15 1021 10 16.0934 N/A
2:55 am 02:55 Cloudy 60 15.4 39 3.9 46 46 ESE 6 9 30.15 1021 10 16.0934 N/A
3:15 am 03:15 Cloudy 60 15.4 39 4 47 47 ESE 3 6 30.15 1021 10 16.0934 N/A
3:35 am 03:35 Cloudy 60 15.3 39 4 47 47 ESE 3 6 30.15 1021 10 16.0934 N/A
3:55 am 03:55 Cloudy 60 15.3 42 5.5 52 52 N N/A 30.15 1021 10 16.0934 N/A
4:15 am 04:15 Cloudy 58 14.3 42 5.8 57 57 N N/A 30.15 1021 10 16.0934 N/A
4:35 am 04:35 Cloudy 57 13.8 42 5.5 58 58 NE 5 7 30.15 1021 10 16.0934 N/A
4:55 am 04:55 Cloudy 57 14.1 42 5.8 58 58 N N/A 30.12 1020 10 16.0934 N/A
5:15 am 05:15 Cloudy 57 13.9 43 6 59 59 N N/A 30.12 1020 10 16.0934 N/A
5:35 am 05:35 Cloudy 60 15.3 45 7 58 58 N N/A 30.12 1020 10 16.0934 N/A
5:55 am 05:55 Partly Cloudy 60 15.3 44 6.5 56 56 SSE 5 7 30.12 1020 10 16.0934 N/A
6:15 am 06:15 Mostly Cloudy 60 15.3 44 6.4 56 56 S 3 6 30.15 1021 10 16.0934 N/A
6:35 am 06:35 Cloudy 60 15.3 44 6.6 56 56 SSE 5 7 30.15 1021 10 16.0934 N/A
6:55 am 06:55 Cloudy 60 15.3 44 6.7 57 57 SSE 3 6 30.15 1021 10 16.0934 N/A
7:15 am 07:15 Cloudy 60 15.3 44 6.7 57 57 SSE 5 7 30.15 1021 10 16.0934 N/A
7:35 am 07:35 Cloudy 60 15.3 45 7 58 58 SE 3 6 30.15 1021 10 16.0934 N/A
7:55 am 07:55 Cloudy 60 15.3 45 7.1 58 58 SE 5 7 30.15 1021 10 16.0934 N/A
8:15 am 08:15 Cloudy 60 15.3 46 7.6 60 60 N N/A 30.15 1021 10 16.0934 N/A
8:35 am 08:35 Cloudy 60 15.3 46 7.6 60 60 SSE 7 11 30.15 1021 10 16.0934 N/A
8:55 am 08:55 Cloudy 60 15.3 47 8.2 63 63 SSE 7 11 30.15 1021 10 16.0934 N/A
9:15 am 09:15 Cloudy 60 15.3 47 8.5 64 64 SSE 8 13 30.15 1021 10 16.0934 N/A
9:35 am 09:35 Cloudy 60 15.4 48 8.9 65 65 SSE 8 13 30.15 1021 10 16.0934 N/A
9:55 am 09:55 Cloudy 60 15.7 49 9.2 65 65 SE 8 13 30.15 1021 10 16.0934 N/A
10:15 am 10:15 Cloudy 60 15.3 48 9.1 67 67 SSE 10 17 30.15 1021 10 16.0934 N/A
10:35 am 10:35 Cloudy 60 15.3 49 9.5 69 69 S 10 17 30.15 1021 10 16.0934 N/A
10:55 am 10:55 Cloudy 60 15.3 49 9.6 69 69 SSE 7 11 30.15 1021 10 16.0934 N/A
11:15 am 11:15 Cloudy 61 15.9 50 10 68 68 SSE 8 13 30.15 1021 10 16.0934 N/A
11:35 am 11:35 Cloudy 61 16.2 51 10.3 68 68 S 7 11 30.15 1021 10 16.0934 N/A
11:55 am 11:55 Cloudy 62 16.6 51 10.4 67 67 S 8 13 30.12 1020 10 16.0934 N/A
12:15 pm 12:15 Cloudy 63 17.1 52 11 68 68 SSE 9 15 30.12 1020 10 16.0934 N/A
12:35 pm 12:35 Cloudy 63 17.3 52 11 67 67 S 9 15 30.12 1020 10 16.0934 N/A
12:55 pm 12:55 Cloudy 63 17.1 52 11.1 68 68 S 9 15 30.09 1019 10 16.0934 N/A
1:15 pm 13:15 Cloudy 64 18 53 11.7 67 67 S 8 13 30.09 1019 10 16.0934 N/A
1:35 pm 13:35 Cloudy 67 19.5 55 12.6 65 65 S 8 13 30.09 1019 10 16.0934 N/A
1:55 pm 13:55 Cloudy 69 20.8 56 13.6 64 64 S 7 11 30.09 1019 10 16.0934 N/A
2:15 pm 14:15 Cloudy 69 20.8 56 13.4 63 63 SSE 5 7 30.09 1019 10 16.0934 N/A
2:35 pm 14:35 Cloudy 69 20.8 56 13.6 64 64 SSW 5 7 30.09 1019 10 16.0934 N/A
2:55 pm 14:55 Cloudy 69 20.8 56 13.5 63 63 SSW 5 7 30.06 1018 10 16.0934 N/A
3:15 pm 15:15 Cloudy 69 20.8 56 13.3 62 62 WSW 5 7 30.06 1018 10 16.0934 N/A
3:35 pm 15:35 Mostly Cloudy 69 20.8 56 13.5 63 63 SSW 6 9 30.06 1018 10 16.0934 N/A
3:55 pm 15:55 Cloudy 69 20.8 55 12.9 61 61 WSW 5 7 30.06 1018 10 16.0934 N/A
4:15 pm 16:15 Cloudy 69 20.8 56 13.3 62 62 SW 6 9 30.06 1018 10 16.0934 N/A
4:35 pm 16:35 Cloudy 70 21.3 56 13.6 62 62 SW 9 15 30.06 1018 10 16.0934 N/A
4:55 pm 16:55 Cloudy 69 20.8 56 13.6 64 64 SW 5 7 30.03 1017 10 16.0934 N/A
5:15 pm 17:15 Cloudy 71 21.6 57 13.8 61 61 WSW 3 6 30.03 1017 10 16.0934 N/A
5:35 pm 17:35 Cloudy 71 21.6 56 13.6 61 61 N N/A 30.03 1017 10 16.0934 N/A
5:55 pm 17:55 Cloudy 72 22 57 13.7 59 59 N N/A 30.03 1017 10 16.0934 N/A
6:15 pm 18:15 Cloudy 71 21.9 57 13.9 61 61 N N/A 30.03 1017 10 16.0934 N/A
6:35 pm 18:35 Cloudy 72 22 58 14.3 62 62 N N/A 30.03 1017 10 16.0934 N/A
6:55 pm 18:55 Cloudy 69 20.8 56 13.5 63 63 N N/A 30.03 1017 10 16.0934 N/A
7:15 pm 19:15 Cloudy 69 20.8 58 14.5 67 67 N N/A 30.03 1017 10 16.0934 N/A
7:35 pm 19:35 Cloudy with Light Rain 69 20.8 60 15.8 73 73 N N/A 30.03 1017 10 16.0934 N/A
7:55 pm 19:55 Cloudy 69 20.8 61 15.9 74 74 N 6 9 30.03 1017 10 16.0934 N/A
8:15 pm 20:15 Mostly Cloudy 67 19.5 60 15.6 78 78 N 3 6 30.03 1017 10 16.0934 N/A
8:35 pm 20:35 Mostly Cloudy 64 18 59 15 83 83 NE 3 6 30.06 1018 10 16.0934 N/A
8:55 pm 20:55 Cloudy 64 18 59 15 83 83 N N/A 30.06 1018 10 16.0934 N/A
9:15 pm 21:15 Cloudy with Light Rain 64 18 59 15.1 83 83 N N/A 30.06 1018 10 16.0934 N/A
9:35 pm 21:35 Cloudy with Light Rain 64 17.8 59 15.2 85 85 N N/A 30.06 1018 10 16.0934 N/A
9:55 pm 21:55 Mostly Cloudy 62 16.8 58 14.3 85 85 N N/A 30.06 1018 10 16.0934 N/A
10:15 pm 22:15 Mostly Cloudy 61 16.2 57 13.8 86 86 N N/A 30.09 1019 10 16.0934 N/A
10:35 pm 22:35 Mostly Cloudy with Mist and Fog 61 16 57 13.9 87 87 S 5 7 30.09 1019 4 6.43736 N/A
10:55 pm 22:55 Mostly Cloudy with Mist and Fog 61 16 57 14 88 88 N N/A 30.09 1019 5 8.0467 N/A
11:15 pm 23:15 Cloudy 61 16.3 58 14.4 89 89 SW 3 6 30.12 1020 10 16.0934 N/A
11:35 pm 23:35 Mostly Cloudy 62 16.7 58 14.7 88 88 SSW 6 9 30.06 1018 10 16.0934 N/A
11:55 pm 23:55 Mostly Cloudy 62 16.6 58 14.6 88 88 WSW 5 7 30.06 1018 10 16.0934 N/A

Powered by AerisWeather